Regional Weather Roundup
Issued by NWS Albany, NY

Home | Current Version | Previous Version | Text Only | Print | Product List | Glossary On
Versions: 1 2 3 4 5 6 7 8 9 10 11 12 13 14 15 16 17 18 19 20 21 22 23 24 25 26 27 28 29 30 31 32 33 34 35 36 37 38 39 40 41 42 43 44 45 46 47 48 49
000
ASUS41 KALY 051310
RWRALY

NEW YORK STATE HOURLY WEATHER ROUNDUP
NATIONAL WEATHER SERVICE ALBANY NY
900 AM EDT SAT SEP 05 2015

NOTE: "FAIR" INDICATES FEW OR NO CLOUDS BELOW 12,000 FEET WITH NO
SIGNIFICANT WEATHER AND/OR NO OBSTRUCTIONS TO VISIBILITY.

NYZ032-033-038>043-046>054-057>066-NYZ062>081-051400-
EAST


CITY           SKY/WX    TMP DP  RH WIND       PRES   REMARKS
ALBANY         MOSUNNY   68  55  63 S8        30.31R
GLENS FALLS    SUNNY     67  60  78 CALM      30.30F
POUGHKEEPSIE   SUNNY     71  53  52 NE6       30.29S
NEWBURGH       SUNNY     68  59  73 E9        30.31S
MONTGOMERY     SUNNY     71  58  63 NE3       30.30R
WHITE PLAINS   MOSUNNY   67  52  58 E9        30.29S
ISLIP          PTSUNNY   69  58  67 E8        30.27S
NEW YORK CITY  MOSUNNY   69  57  65 NE13      30.27S
CENTRAL PARK   SUNNY     70  57  63 VRB7      30.31R
$$

NYZ005>009-017-018-044>046-055-056-051400-
CENTRAL


CITY           SKY/WX    TMP DP  RH WIND       PRES   REMARKS
FULTON         MOSUNNY   72  66  81 CALM      30.24R
SYRACUSE       PTSUNNY   71  67  87 E7        30.24S
ROME           MOSUNNY   69  62  78 E7        30.30R
ELMIRA         MOSUNNY   74  65  73 VRB6      30.25R
BINGHAMTON     MOSUNNY   66  62  87 S9        30.30S
MONTICELLO     SUNNY     66  61  82 E5        30.33S
$$

NYZ026>034-041>043-051400-
NORTH


CITY           SKY/WX    TMP DP  RH WIND       PRES   REMARKS
WATERTOWN      CLOUDY    73  66  78 CALM      30.23R HAZE
FORT DRUM      NOT AVBL
MASSENA        SUNNY     65  55  70 CALM      30.25F
SARANAC LAKE   SUNNY     62  55  77 S3        30.30S
PLATTSBURGH    SUNNY     65  58  78 S3        30.27F
$$

NYZ001>004-010>016-019>021-051400-
WEST


CITY           SKY/WX    TMP DP  RH WIND       PRES   REMARKS
NIAGARA FALLS  MOSUNNY   75  67  76 S12       30.17R
BUFFALO        MOSUNNY   75  67  76 S8        30.19R
DUNKIRK        SUNNY     75  68  78 S10       30.18S
JAMESTOWN      MOSUNNY   70  64  83 S9        30.24S
WELLSVILLE     CLOUDY    71  65  81 S8        30.29R HAZE
ROCHESTER      PTSUNNY   74  67  78 SW5       30.20R
PENN YAN       SUNNY     74  67  78 S9        30.24R HAZE
$$

             KEY
       WCI = WIND CHILL INDEX
       VSB = VISIBILITY
       HX  = HEAT INDEX
$$



USA.gov is the U.S. government's official web portal to all federal, state and local government web resources and services.